Wetbulb
76.87 76.67 76.88 74.21 63.49 63.47 58.93 59.81 64.38 60.94 62.78 66.79 65.13 64.26 64.73 66.50 63.43 59.61 71.99 73.92 74.88 74.89 75.10 75.92 76.43 76.24 76.31 76.56 76.20 75.65 75.22 75.43 76.06 75.97 75.77 75.67 75.37 75.70 75.84 76.29 76.45 76.83 77.19 77.54 76.98 76.76 76.68 76.82 76.98
76.64 76.02 74.13 68.45 60.55 57.51 58.69 62.75 61.98 63.78 66.95 66.87 66.96 67.82 66.56 64.94 69.09 68.94 70.48 74.48 75.02 74.58 74.49 75.59 76.89 76.01 75.69 75.86 75.77 75.33 75.12 75.28 75.76 76.34 75.31 75.40 75.57 75.68 76.07 76.70 77.33 77.67 77.56 77.35 76.87 77.07 77.07 77.27 77.21
76.09 74.00 68.38 64.25 60.11 57.30 58.49 63.13 64.98 66.45 67.66 65.23 66.43 69.29 67.76 65.36 69.06 69.78 73.64 74.80 74.91 74.38 74.33 76.08 75.89 75.67 75.65 75.70 75.38 75.16 74.98 74.84 75.41 75.97 75.49 75.27 75.51 76.21 76.68 77.09 77.62 78.02 77.98 78.07 76.99 77.38 77.40 77.38 77.54
74.12 71.36 68.67 61.45 58.70 60.99 62.25 65.16 66.49 66.35 67.82 68.17 68.09 65.39 68.89 71.16 70.11 72.53 74.78 75.12 74.39 73.98 74.33 76.18 75.93 75.57 75.82 75.30 75.22 74.79 74.60 74.76 75.41 75.53 75.46 75.52 76.13 76.60 77.37 78.01 78.26 78.63 78.10 78.38 77.40 77.63 77.70 77.72 77.95
73.23 69.98 62.93 60.45 60.93 63.19 65.96 67.35 67.68 65.99 66.45 66.62 67.18 64.04 65.19 70.99 73.99 74.02 74.36 74.74 73.57 73.78 74.60 75.67 76.07 75.82 75.66 75.47 75.11 74.87 74.73 74.98 75.39 75.67 75.87 76.32 77.01 77.78 78.54 78.54 78.75 78.91 78.61 77.85 78.09 77.88 77.66 77.68 77.46
67.47 67.77 61.45 59.44 61.52 64.72 67.06 68.47 68.03 66.67 66.99 66.71 65.58 65.29 66.14 72.86 72.93 73.40 74.39 74.39 74.01 73.11 74.70 75.30 75.99 75.99 75.79 75.64 75.19 75.00 74.76 74.82 75.64 76.15 76.48 77.31 77.97 78.56 79.00 79.60 79.80 79.93 78.46 78.24 78.11 78.18 77.79 77.62 77.34
65.85 63.98 60.07 60.58 62.30 63.61 66.02 69.30 67.09 66.21 66.23 65.41 68.08 63.95 67.72 70.55 72.63 73.85 74.33 74.59 73.58 74.05 74.04 75.39 76.08 76.15 76.43 75.96 75.57 75.43 74.60 74.85 75.76 77.11 77.57 78.35 78.27 78.38 78.45 78.64 79.60 80.07 78.69 78.77 78.27 78.39 77.88 77.54 77.55
67.43 65.51 60.62 61.12 61.47 62.31 67.59 67.84 68.67 67.21 65.72 69.88 70.08 64.68 64.80 69.23 72.93 73.89 74.14 73.41 72.85 74.77 73.73 75.03 76.82 77.39 77.37 77.10 76.09 75.47 74.46 75.32 76.48 77.59 77.77 77.37 76.66 77.13 77.62 78.97 79.22 79.84 78.86 78.67 78.51 77.71 77.42 77.16 76.94
69.67 63.43 60.10 61.21 61.79 64.40 68.23 65.65 68.78 69.91 67.41 68.33 69.22 68.84 70.68 71.76 72.97 72.41 71.82 71.71 72.49 74.24 74.89 74.51 75.62 77.29 77.48 77.69 77.43 75.40 75.11 76.25 76.28 76.79 75.96 77.50 77.24 77.62 77.73 78.07 78.34 79.06 79.17 78.99 78.50 77.74 77.40 77.06 76.73
65.26 63.57 61.71 64.91 65.12 65.14 67.83 67.01 67.57 66.69 66.71 66.62 68.19 70.70 71.82 72.01 71.47 70.38 69.58 69.20 69.95 71.51 73.77 74.26 74.97 76.94 76.20 76.69 77.77 76.75 76.54 77.13 77.20 76.51 77.43 77.38 77.39 77.14 76.41 77.52 77.72 77.94 78.43 78.03 77.00 76.70 76.20 76.13 76.15
64.88 62.36 64.47 65.05 66.43 67.92 68.07 67.70 69.03 66.54 65.08 67.36 67.23 68.87 70.43 70.75 70.51 70.05 69.74 69.75 69.73 70.60 71.55 73.68 75.59 77.50 76.74 77.04 76.45 75.36 76.57 77.19 76.71 76.13 77.59 77.15 76.89 76.74 76.59 76.87 76.92 77.08 77.60 77.20 76.32 75.58 75.59 76.10 75.59
62.96 65.16 65.44 66.10 67.33 67.37 67.75 69.57 66.93 67.48 67.82 70.13 70.34 70.74 70.54 69.75 69.65 69.86 69.88 69.51 69.75 70.59 72.28 73.94 75.91 76.64 76.65 76.77 75.29 75.34 76.29 77.01 75.28 75.78 77.51 76.54 76.08 76.26 76.80 76.63 77.05 77.18 77.49 77.22 75.78 75.30 75.89 75.80 75.71
63.40 64.51 65.84 66.86 66.28 67.14 69.94 67.95 67.24 67.03 69.44 70.80 70.76 70.70 70.35 70.48 70.22 70.77 71.30 70.51 70.38 70.68 72.37 74.59 76.07 76.78 76.91 76.36 74.56 74.90 77.02 76.26 75.09 75.94 77.12 76.57 76.44 76.26 77.08 77.08 77.18 77.17 77.27 76.99 75.54 75.33 75.32 75.09 74.95
66.13 65.23 65.35 66.05 66.09 68.56 67.18 67.32 67.74 67.77 70.12 69.52 69.65 69.89 70.42 70.31 70.56 71.29 71.74 70.78 70.92 72.04 73.42 75.14 76.15 76.48 76.68 75.85 74.82 74.40 77.03 75.78 75.26 75.33 76.87 76.65 76.48 76.77 76.54 77.28 76.88 76.93 77.40 77.17 76.56 75.27 75.06 74.35 74.27
66.03 62.55 64.47 64.97 65.02 64.67 68.16 64.45 64.53 68.77 69.92 68.73 68.95 69.87 70.32 70.83 71.63 71.76 72.70 72.16 72.36 73.01 74.09 74.78 75.74 76.15 76.23 75.70 74.44 74.00 76.32 75.09 74.08 74.71 76.28 76.25 75.89 77.16 77.37 77.22 76.85 77.19 77.52 77.39 76.77 75.67 75.42 74.40 74.05
62.49 62.07 59.78 63.20 64.79 65.13 65.06 60.55 65.01 69.19 68.83 67.52 68.91 69.26 68.70 70.73 71.50 72.71 73.41 73.69 74.10 73.92 73.98 74.97 75.45 75.56 75.77 75.72 74.50 74.02 75.84 75.74 73.44 74.74 74.99 75.99 75.79 76.66 77.42 77.41 76.72 77.51 77.58 76.97 76.05 75.12 74.42 74.13 73.55
61.95 57.43 58.07 60.33 64.10 64.10 63.95 61.89 65.69 68.97 68.28 67.91 68.57 68.97 69.79 70.37 71.50 71.47 73.58 73.70 74.52 74.64 74.57 74.77 75.46 75.38 75.54 76.27 75.57 74.77 74.74 74.51 74.16 73.10 73.61 74.56 76.55 76.64 77.52 77.27 76.84 77.38 76.80 76.60 76.20 75.35 75.57 73.72 73.25
56.82 57.37 58.76 58.89 62.61 62.95 62.27 62.72 65.08 67.96 67.91 67.87 67.93 69.46 69.65 70.28 70.93 72.69 72.90 73.81 74.77 74.45 75.00 75.09 75.24 75.93 76.21 76.12 75.85 74.90 74.33 73.16 72.98 72.45 72.76 73.91 76.64 77.19 77.14 77.12 77.26 77.18 76.41 76.01 77.14 76.72 76.41 74.35 74.51
59.91 58.60 57.90 60.98 64.04 62.06 61.60 62.51 64.29 67.46 67.47 67.27 68.00 68.77 69.44 70.21 72.14 73.14 73.63 72.95 74.48 74.65 74.87 75.26 75.41 76.01 75.85 75.07 73.99 73.44 73.02 73.46 74.10 73.58 73.34 74.23 75.72 77.12 76.49 76.39 76.52 76.54 76.14 76.09 76.29 76.44 75.34 73.78 74.08
58.15 57.39 58.73 61.92 63.49 62.30 62.24 62.60 63.05 65.53 67.17 68.12 68.10 68.12 68.76 69.75 70.96 72.24 73.08 73.16 71.87 74.03 74.50 75.29 75.61 75.99 76.08 75.52 74.96 74.31 74.07 74.84 75.03 75.55 74.82 74.50 76.05 77.30 76.85 76.27 75.96 76.21 75.49 76.25 76.01 75.47 74.37 73.34 73.63
56.88 56.18 57.37 56.86 61.38 62.16 60.35 59.80 59.81 62.09 64.41 66.94 69.13 69.76 69.90 69.63 69.91 71.18 71.91 72.32 71.08 73.38 74.03 74.68 75.43 75.87 76.07 76.18 75.38 74.59 74.87 75.04 74.71 74.52 73.56 74.33 76.52 77.10 77.26 76.56 76.68 76.40 75.74 76.77 75.68 75.22 74.91 72.52 72.98
54.07 58.52 55.76 55.84 57.00 56.06 58.73 53.67 58.90 60.07 62.70 64.76 67.52 69.10 69.79 70.40 71.13 71.49 72.08 72.16 70.73 71.81 72.11 73.63 74.55 75.06 75.79 76.19 75.03 74.31 73.14 72.95 74.46 75.04 74.56 74.62 76.27 76.88 76.96 76.82 76.60 76.57 75.21 74.89 76.19 75.38 74.79 74.46 72.06
54.20 56.05 57.97 58.87 57.68 57.48 56.57 54.92 58.38 59.96 60.28 61.97 63.28 64.25 65.10 67.10 69.94 71.25 71.88 72.83 73.35 72.90 72.57 71.91 73.71 74.62 75.48 75.27 76.00 74.44 73.90 74.34 75.50 75.38 75.33 75.61 75.76 76.29 76.48 77.06 76.82 76.91 75.90 75.45 75.10 74.30 74.93 74.42 73.39
56.41 57.71 58.00 58.22 57.78 52.90 54.06 54.58 56.47 58.66 59.44 61.51 63.42 64.90 65.61 67.19 66.83 69.98 72.51 73.57 73.52 73.52 73.32 72.01 72.85 73.81 74.95 75.03 75.34 74.90 74.52 74.55 74.32 74.84 74.41 74.60 74.41 74.87 76.25 76.88 76.69 76.76 76.29 76.57 75.47 75.44 75.12 74.97 74.43
56.39 54.28 52.15 51.96 52.21 51.14 55.44 54.58 57.08 60.04 61.15 62.32 62.79 64.20 64.27 66.11 67.47 68.33 70.79 72.04 73.00 72.81 73.79 73.64 72.83 73.44 74.59 74.86 74.95 75.00 74.98 75.14 75.11 75.45 74.57 74.90 74.36 74.62 75.27 76.15 76.00 75.35 76.57 76.77 76.91 75.91 75.65 74.94 74.45
54.43 54.95 52.22 47.12 48.69 51.18 55.25 52.95 56.72 61.93 63.27 64.16 64.17 64.15 64.25 63.94 65.95 68.60 70.96 72.03 72.63 72.99 73.79 73.90 72.49 73.72 74.51 74.74 74.98 75.66 75.61 75.06 75.23 75.65 75.19 74.97 74.90 75.24 76.51 76.37 76.11 76.27 76.08 76.14 76.76 75.24 75.15 75.39 74.79
54.59 53.44 56.70 52.74 51.48 51.67 53.60 56.84 60.48 61.51 61.54 62.59 62.87 63.40 63.36 63.80 64.27 64.95 70.15 72.19 72.84 73.35 73.72 74.42 74.03 74.30 74.68 74.73 75.32 75.39 75.59 75.42 75.27 76.28 76.09 75.74 76.21 75.75 76.48 76.47 76.17 76.25 76.10 76.20 76.31 74.73 74.87 75.28 75.17
54.91 57.05 52.38 53.76 47.84 46.66 51.23 53.30 54.77 59.26 59.90 62.03 62.03 62.46 63.22 64.44 64.84 65.05 66.83 71.32 72.98 73.76 74.42 74.96 75.37 74.75 75.19 75.23 75.44 75.31 75.57 75.76 76.09 76.14 75.86 76.03 76.18 76.49 76.50 76.29 76.07 76.29 76.21 76.36 76.14 75.07 75.41 75.27 74.75
54.21 54.04 53.46 54.59 52.92 49.33 48.04 51.97 61.37 61.91 60.59 61.55 62.07 62.41 62.85 64.51 64.91 65.33 65.81 70.93 72.85 73.73 74.25 74.58 75.08 74.95 75.00 75.40 75.76 75.51 75.69 75.88 76.14 75.74 75.99 76.35 76.43 76.77 76.53 76.74 76.52 76.08 75.99 76.03 75.75 75.48 75.48 74.78 74.83
55.08 54.57 55.40 50.96 50.96 52.16 52.23 52.48 59.25 60.75 61.83 61.95 62.05 62.85 67.16 66.92 67.25 68.92 69.90 70.64 72.27 73.26 73.98 74.20 74.80 74.98 75.37 75.81 76.09 75.83 76.15 76.32 75.69 75.85 76.17 76.72 76.44 76.82 76.60 76.54 76.35 76.02 75.71 75.94 75.37 74.79 74.67 74.69 74.26
MSLP
1010.07 1010.21 1010.41 1010.23 1010.32 1009.66 1010.21 1010.69 1010.74 1010.81 1011.14 1011.18 1011.66 1012.00 1012.33 1012.91 1013.20 1014.27 1014.78 1015.07 1015.14 1015.67 1016.20 1016.66 1016.94 1017.09 1017.22 1017.33 1017.45 1017.52 1017.57 1017.59 1017.42 1017.30 1017.20 1017.09 1016.97 1016.76 1016.57 1016.34 1016.20 1016.00 1015.75 1015.50 1015.30 1015.19 1015.09 1014.88 1014.79
1009.97 1010.16 1010.23 1009.68 1009.64 1009.53 1010.23 1010.40 1010.16 1010.27 1010.60 1011.01 1011.78 1011.99 1012.38 1013.29 1013.93 1014.66 1014.92 1015.37 1015.47 1015.87 1016.29 1016.70 1017.18 1017.38 1017.43 1017.47 1017.61 1017.71 1017.80 1017.76 1017.64 1017.50 1017.43 1017.25 1016.99 1016.78 1016.64 1016.42 1016.21 1015.82 1015.73 1015.49 1015.29 1015.21 1015.04 1014.90 1014.77
1009.89 1009.80 1009.85 1009.48 1009.74 1009.67 1009.75 1009.93 1009.95 1010.33 1010.62 1010.89 1011.50 1012.15 1012.94 1013.74 1014.45 1014.78 1015.11 1015.59 1015.80 1016.24 1016.62 1017.05 1017.42 1017.52 1017.58 1017.63 1017.80 1017.88 1017.95 1017.90 1017.82 1017.74 1017.59 1017.39 1017.10 1016.88 1016.65 1016.48 1016.14 1015.91 1015.74 1015.58 1015.43 1015.27 1015.17 1015.00 1014.94
1009.31 1009.55 1009.76 1009.57 1009.70 1009.79 1009.68 1009.88 1010.08 1010.34 1010.68 1010.99 1011.63 1012.57 1013.67 1014.20 1014.66 1015.00 1015.44 1015.62 1016.00 1016.37 1016.81 1017.31 1017.54 1017.66 1017.71 1017.78 1017.88 1017.90 1018.06 1018.08 1017.92 1017.83 1017.62 1017.46 1017.19 1016.94 1016.65 1016.44 1016.05 1015.86 1015.71 1015.65 1015.54 1015.52 1015.44 1015.34 1015.36
1009.24 1009.31 1009.59 1009.52 1009.54 1009.64 1009.50 1009.72 1010.08 1010.21 1010.65 1011.27 1011.83 1013.00 1014.17 1014.73 1014.93 1015.47 1015.87 1016.06 1016.23 1016.70 1017.07 1017.33 1017.65 1017.73 1017.84 1017.93 1018.00 1018.01 1018.12 1018.12 1017.94 1017.86 1017.67 1017.47 1017.12 1016.94 1016.74 1016.38 1016.07 1015.79 1015.79 1015.79 1015.78 1015.77 1015.78 1015.79 1015.71
1009.24 1009.54 1009.71 1009.55 1009.36 1009.50 1009.53 1009.69 1009.94 1010.38 1010.90 1011.62 1012.30 1013.12 1014.53 1015.16 1015.27 1015.65 1016.05 1016.18 1016.40 1016.73 1017.12 1017.39 1017.71 1017.82 1017.91 1017.98 1018.07 1018.10 1018.16 1018.14 1018.01 1017.90 1017.72 1017.53 1017.15 1016.98 1016.83 1016.45 1016.03 1015.74 1015.85 1016.15 1016.16 1016.19 1016.17 1016.10 1016.06
1009.07 1009.49 1009.84 1009.60 1009.28 1009.14 1009.36 1009.73 1009.87 1010.38 1010.93 1011.48 1012.13 1013.27 1014.94 1015.37 1015.63 1015.99 1016.26 1016.49 1016.63 1016.87 1017.15 1017.47 1017.61 1017.76 1017.92 1018.04 1018.13 1018.17 1018.20 1018.22 1018.12 1017.93 1017.76 1017.56 1017.34 1017.09 1016.99 1016.73 1016.27 1016.02 1016.19 1016.45 1016.56 1016.52 1016.52 1016.45 1016.51
1009.25 1009.30 1009.44 1009.39 1009.01 1009.03 1009.31 1009.62 1009.99 1010.24 1010.95 1011.67 1012.01 1012.82 1014.37 1015.26 1015.72 1016.09 1016.40 1016.64 1016.90 1017.07 1017.17 1017.42 1017.70 1017.82 1017.90 1017.97 1018.20 1018.21 1018.24 1018.27 1018.15 1018.05 1017.83 1017.72 1017.54 1017.23 1017.02 1016.83 1016.68 1016.53 1016.69 1016.91 1016.95 1016.97 1016.91 1016.94 1016.99
1009.34 1009.00 1008.84 1008.66 1008.56 1008.73 1009.22 1009.52 1010.07 1010.41 1010.92 1011.66 1012.18 1012.60 1013.41 1015.04 1015.59 1016.03 1016.43 1016.69 1016.99 1017.31 1017.41 1017.29 1017.53 1017.91 1017.98 1018.15 1018.23 1018.25 1018.32 1018.36 1018.30 1018.08 1017.96 1017.55 1017.31 1017.08 1016.83 1017.13 1017.01 1016.96 1016.94 1017.14 1017.46 1017.47 1017.40 1017.40 1017.51
1009.04 1008.71 1008.45 1008.36 1008.23 1008.27 1008.84 1009.29 1009.81 1010.32 1010.97 1011.94 1012.71 1013.35 1014.20 1015.13 1015.34 1015.57 1015.93 1016.21 1016.55 1016.82 1017.21 1017.29 1017.45 1017.80 1018.18 1018.07 1018.32 1018.40 1018.38 1018.21 1018.21 1018.22 1018.01 1017.66 1017.43 1017.21 1017.18 1017.24 1017.30 1017.31 1017.42 1017.62 1017.89 1017.99 1017.99 1017.68 1017.50
1008.73 1008.50 1008.44 1007.90 1007.70 1007.89 1008.44 1009.09 1009.71 1010.12 1010.67 1011.33 1012.25 1013.33 1014.27 1014.93 1015.33 1015.48 1015.72 1015.81 1016.04 1016.51 1016.99 1017.27 1017.42 1017.65 1017.87 1018.16 1018.33 1018.35 1018.37 1018.30 1018.19 1018.28 1018.11 1017.88 1017.56 1017.22 1017.19 1017.17 1017.16 1017.26 1017.51 1017.47 1017.82 1017.86 1018.00 1018.20 1018.13
1008.94 1008.45 1008.14 1007.51 1007.40 1007.61 1008.17 1008.83 1009.57 1010.08 1010.36 1010.81 1011.99 1012.87 1013.84 1014.46 1014.82 1015.08 1015.39 1015.74 1016.02 1016.38 1016.82 1017.13 1017.33 1017.69 1017.99 1018.10 1018.35 1018.48 1018.46 1018.42 1018.31 1018.31 1018.22 1018.07 1017.63 1017.40 1017.42 1017.41 1017.48 1017.59 1017.68 1017.83 1018.13 1018.34 1018.76 1018.86 1018.87
1008.91 1008.19 1007.78 1007.38 1007.24 1007.46 1008.18 1008.77 1009.38 1010.35 1010.83 1011.36 1012.37 1013.40 1013.82 1014.24 1014.65 1015.03 1015.49 1015.93 1016.19 1016.35 1016.70 1016.99 1017.21 1017.57 1017.87 1018.25 1018.28 1018.45 1018.54 1018.58 1018.50 1018.44 1018.30 1018.13 1017.93 1017.91 1017.68 1017.82 1017.76 1017.76 1017.88 1018.00 1018.36 1018.71 1018.99 1019.23 1019.30
1008.56 1008.06 1007.53 1007.27 1007.30 1007.65 1008.11 1008.83 1009.35 1010.56 1011.31 1012.01 1012.66 1013.23 1013.83 1014.23 1014.68 1015.26 1015.63 1015.84 1016.06 1016.33 1016.66 1017.20 1017.47 1017.53 1017.73 1018.08 1018.34 1018.37 1018.57 1018.71 1018.67 1018.66 1018.54 1018.42 1018.22 1018.20 1017.96 1018.02 1018.07 1018.14 1018.12 1018.34 1018.62 1018.93 1019.29 1019.43 1019.54
1008.32 1007.83 1007.42 1007.49 1007.59 1007.74 1008.07 1008.81 1009.09 1010.20 1011.29 1011.98 1012.39 1013.24 1013.92 1014.24 1014.61 1014.82 1015.17 1015.40 1015.62 1015.93 1016.48 1016.87 1017.35 1017.52 1017.84 1018.07 1018.32 1018.29 1018.42 1018.61 1018.62 1018.73 1018.80 1018.68 1018.52 1018.43 1018.37 1018.17 1018.20 1018.33 1018.55 1018.71 1019.00 1019.25 1019.60 1019.72 1019.84
1008.42 1008.29 1007.96 1007.90 1007.81 1008.02 1008.06 1008.13 1009.05 1010.32 1011.22 1011.80 1012.11 1013.01 1013.56 1013.67 1013.71 1014.13 1014.59 1014.97 1015.35 1015.82 1016.24 1016.82 1017.10 1017.27 1017.60 1017.89 1018.19 1018.19 1018.37 1018.53 1018.61 1018.76 1018.72 1018.76 1018.74 1018.64 1018.49 1018.43 1018.31 1018.50 1018.65 1018.86 1019.03 1019.35 1019.73 1020.03 1020.20
1009.02 1008.73 1008.54 1008.15 1008.10 1008.03 1008.20 1008.06 1008.75 1009.79 1010.61 1011.19 1011.69 1012.46 1012.80 1013.29 1013.89 1014.19 1013.94 1014.33 1014.71 1015.47 1016.09 1016.52 1017.00 1017.15 1017.44 1017.92 1018.17 1018.18 1018.35 1018.64 1018.64 1018.80 1018.79 1018.78 1018.69 1018.69 1018.55 1018.54 1018.59 1018.63 1018.59 1018.84 1019.05 1019.49 1019.77 1020.06 1020.51
1009.20 1008.98 1008.70 1008.37 1008.14 1008.10 1007.95 1007.79 1008.37 1009.16 1009.85 1010.43 1011.25 1011.82 1012.15 1012.42 1012.69 1013.16 1013.63 1014.36 1014.86 1015.48 1015.90 1016.33 1016.83 1017.31 1017.56 1017.78 1018.20 1018.20 1018.29 1018.46 1018.55 1018.60 1018.72 1018.83 1018.57 1018.72 1018.62 1018.65 1018.82 1018.63 1018.55 1018.87 1019.11 1019.47 1020.13 1020.26 1020.60
1009.15 1009.09 1008.82 1008.41 1008.13 1008.01 1007.83 1007.63 1007.63 1008.39 1009.26 1009.79 1010.34 1010.74 1010.93 1011.36 1011.89 1012.25 1012.97 1013.81 1014.43 1014.79 1015.53 1015.82 1016.26 1016.84 1017.45 1017.75 1017.88 1017.96 1017.88 1018.14 1018.30 1018.29 1018.69 1018.82 1018.58 1018.68 1018.72 1018.58 1018.92 1018.73 1018.75 1018.85 1019.22 1019.55 1020.00 1020.63 1020.72
1009.00 1008.82 1008.55 1008.26 1008.19 1008.16 1007.67 1007.13 1007.22 1007.82 1008.40 1008.73 1009.11 1009.50 1010.12 1010.81 1011.17 1011.57 1012.10 1012.76 1013.29 1013.58 1014.28 1015.36 1015.83 1016.46 1017.12 1017.41 1017.51 1017.68 1017.68 1017.80 1017.92 1018.01 1018.36 1018.61 1018.49 1018.54 1018.56 1018.72 1018.76 1018.86 1018.89 1019.01 1019.22 1019.56 1019.97 1020.60 1020.85
1008.64 1008.71 1008.60 1008.43 1008.25 1008.26 1007.89 1007.13 1007.22 1007.51 1007.78 1007.86 1008.32 1008.70 1009.29 1009.74 1010.18 1010.63 1011.35 1011.92 1013.54 1014.41 1015.58 1015.61 1015.43 1016.03 1016.50 1017.07 1017.49 1017.62 1017.76 1017.70 1017.85 1017.89 1018.10 1018.24 1018.35 1018.35 1018.49 1018.59 1018.62 1018.76 1018.94 1018.98 1019.13 1019.31 1019.51 1019.78 1020.53
1008.33 1008.64 1008.52 1008.54 1008.29 1008.27 1008.44 1007.41 1007.23 1007.48 1007.27 1007.44 1007.68 1008.02 1008.41 1008.92 1009.26 1009.66 1010.25 1011.21 1012.64 1014.61 1014.23 1015.06 1015.55 1015.42 1016.01 1016.83 1017.07 1017.08 1017.05 1016.94 1017.04 1017.35 1017.64 1017.83 1018.07 1018.11 1018.23 1018.34 1018.49 1018.54 1018.86 1019.00 1019.08 1019.17 1019.40 1019.65 1019.78
1008.26 1008.44 1008.35 1008.25 1008.28 1008.59 1008.69 1008.22 1007.31 1007.53 1007.13 1007.10 1007.27 1007.47 1007.64 1007.70 1007.92 1008.40 1009.04 1010.11 1011.65 1012.81 1012.72 1012.76 1013.71 1014.69 1015.26 1016.18 1016.38 1016.54 1016.64 1016.57 1016.89 1017.15 1017.46 1017.64 1017.74 1017.89 1017.93 1018.04 1018.21 1018.29 1018.40 1018.79 1019.00 1019.22 1019.42 1019.55 1019.53
1008.12 1008.36 1008.43 1008.63 1008.64 1008.69 1009.15 1008.85 1007.49 1007.39 1007.46 1007.22 1007.02 1006.90 1007.01 1006.94 1007.02 1007.53 1008.57 1009.74 1010.42 1011.67 1011.82 1011.91 1013.54 1013.97 1014.65 1015.46 1015.91 1016.16 1016.21 1016.29 1016.60 1016.86 1017.03 1017.21 1017.40 1017.57 1017.64 1017.71 1017.89 1018.16 1018.28 1018.60 1018.67 1018.95 1019.16 1019.29 1019.51
1008.13 1007.97 1007.87 1008.26 1008.52 1008.80 1009.48 1009.06 1007.45 1007.43 1007.52 1007.34 1007.23 1007.04 1006.89 1006.67 1006.69 1007.19 1008.12 1009.07 1009.81 1010.52 1011.01 1012.09 1013.04 1013.47 1014.00 1014.77 1015.21 1015.58 1015.65 1015.90 1016.11 1016.37 1016.57 1016.83 1016.98 1017.10 1017.28 1017.55 1017.78 1017.92 1018.06 1018.21 1018.43 1018.76 1018.94 1019.10 1019.20
1007.87 1007.91 1007.81 1008.09 1008.59 1008.88 1009.60 1008.38 1007.33 1007.43 1007.48 1007.54 1007.57 1007.40 1007.21 1006.73 1006.58 1007.18 1007.81 1008.56 1009.27 1010.05 1010.68 1011.40 1012.22 1012.70 1013.32 1013.94 1014.43 1014.86 1015.20 1015.36 1015.64 1015.97 1016.14 1016.45 1016.58 1016.76 1016.80 1017.13 1017.30 1017.52 1017.69 1017.91 1018.15 1018.41 1018.67 1018.87 1018.95
1008.06 1008.12 1008.41 1008.46 1009.43 1008.99 1008.81 1008.09 1007.05 1007.33 1007.17 1007.32 1007.29 1007.40 1007.25 1006.99 1006.73 1006.88 1007.56 1008.23 1008.92 1009.55 1010.06 1010.68 1011.56 1012.10 1012.56 1012.90 1013.51 1013.96 1014.49 1014.78 1014.91 1015.31 1015.79 1015.98 1016.32 1016.40 1016.65 1016.74 1016.95 1017.02 1017.21 1017.38 1017.57 1018.03 1018.31 1018.52 1018.71
1007.38 1008.13 1008.44 1008.50 1008.50 1008.41 1008.29 1007.91 1006.97 1006.70 1006.75 1007.18 1007.41 1007.42 1007.20 1006.95 1006.95 1006.77 1007.13 1007.75 1008.35 1008.88 1009.51 1010.23 1010.78 1011.22 1011.68 1012.18 1012.68 1013.15 1013.54 1014.07 1014.45 1014.93 1015.21 1015.44 1015.73 1016.08 1016.18 1016.48 1016.72 1016.82 1016.91 1016.97 1017.35 1017.56 1017.99 1018.32 1018.40
1007.90 1007.82 1008.44 1008.49 1008.62 1007.85 1007.52 1006.86 1006.50 1006.24 1007.15 1007.37 1007.77 1007.97 1007.91 1007.48 1007.13 1006.94 1007.11 1007.65 1008.15 1008.78 1009.33 1009.88 1010.46 1010.88 1011.20 1011.73 1012.33 1012.63 1012.85 1013.22 1013.80 1014.15 1014.55 1014.98 1015.24 1015.44 1015.83 1016.09 1016.38 1016.57 1016.68 1016.81 1016.94 1017.12 1017.39 1017.78 1018.00
1007.24 1006.82 1007.16 1007.25 1008.26 1008.45 1007.61 1006.46 1006.42 1007.08 1007.46 1008.02 1008.31 1008.50 1008.61 1008.29 1007.70 1007.52 1007.57 1007.93 1008.53 1008.91 1009.23 1009.73 1010.16 1010.45 1010.75 1011.26 1011.95 1012.22 1012.48 1012.75 1013.11 1013.55 1013.80 1014.25 1014.49 1014.77 1015.18 1015.71 1016.10 1016.26 1016.40 1016.60 1016.76 1016.63 1016.72 1017.12 1017.31
Wind_Speed
7 4 3 3 1 4 4 4 1 10 7 4 16 4 2 4 1 3 8 8 17 16 14 12 11 10 9 7 7 7 7 8 8 9 10 10 9 9 9 9 8 8 8 8 9 9 8 8 7
3 4 2 0 3 4 3 2 8 9 3 11 10 6 3 4 4 9 13 14 16 14 12 12 10 9 8 6 6 6 7 7 8 8 9 9 8 9 9 10 10 10 10 9 8 8 9 10 10
5 2 1 3 3 3 4 5 7 7 10 14 6 6 3 3 7 16 9 16 14 12 11 10 10 8 7 5 6 5 5 5 7 9 9 8 8 9 10 11 12 12 10 9 8 9 11 12 11
2 1 2 5 8 4 3 7 15 11 7 7 8 7 5 5 12 7 18 17 14 13 11 11 9 7 6 6 5 3 4 5 7 8 9 9 10 10 10 11 12 12 10 8 9 12 12 15 17
1 2 5 5 6 3 5 9 9 5 5 7 2 6 6 6 9 16 16 14 14 12 10 10 9 7 6 5 4 3 4 5 7 7 8 9 9 11 12 11 11 9 7 9 13 14 15 15 15
3 1 4 4 4 4 6 8 5 3 6 7 7 9 5 6 14 16 14 13 12 12 10 9 9 8 6 4 3 2 3 5 6 7 8 9 9 11 12 13 12 9 9 11 14 15 15 16 16
4 3 2 2 4 3 4 5 2 5 6 5 13 6 5 8 14 14 13 12 12 10 10 8 8 8 6 4 2 1 3 4 6 8 9 11 12 11 11 12 14 12 12 14 15 15 17 16 17
2 2 2 1 2 4 5 3 6 5 6 12 7 6 8 10 16 14 13 12 12 9 9 8 6 5 5 4 3 0 3 4 6 8 10 11 7 9 9 7 13 12 13 14 16 17 17 17 18
0 2 3 1 1 5 8 5 3 4 12 5 3 6 13 20 18 15 13 12 11 9 9 8 8 5 5 4 1 0 4 6 7 6 8 5 6 6 6 11 13 14 12 15 16 16 17 18 18
3 2 2 0 1 2 9 7 6 6 10 5 10 14 21 19 19 18 16 14 15 13 12 9 8 7 4 3 2 0 2 3 4 5 6 5 6 6 6 9 11 13 13 18 16 16 14 11 9
3 1 1 2 5 5 9 6 4 9 7 7 12 20 21 19 17 17 16 15 16 14 11 11 9 8 7 4 2 1 0 2 3 5 6 5 4 4 5 4 5 5 7 7 8 9 8 11 9
2 3 3 4 3 6 8 9 5 8 2 5 17 22 21 20 19 17 16 15 15 14 13 12 11 8 7 4 3 2 1 2 3 4 6 4 4 5 5 5 6 5 5 8 8 7 10 12 12
2 3 3 4 3 7 10 5 2 6 6 14 18 18 19 18 17 15 12 12 13 14 13 12 11 9 7 6 4 3 2 1 3 3 5 4 4 5 5 5 5 5 6 6 8 8 9 10 11
4 6 1 4 6 8 6 4 3 5 13 15 18 19 16 17 16 13 12 13 14 13 12 11 11 10 9 6 6 4 3 2 2 2 3 4 3 4 4 4 4 5 5 5 7 7 8 8 10
5 2 4 7 3 3 7 3 4 11 15 15 16 16 15 15 15 15 13 14 14 12 12 13 12 11 10 8 6 5 3 3 2 1 2 4 3 4 4 4 4 4 5 7 8 9 8 8 9
5 3 2 3 1 2 3 3 1 14 15 14 16 15 15 18 20 17 16 15 13 12 13 13 11 12 11 8 6 5 4 3 3 2 2 3 3 3 3 3 4 3 4 5 6 7 8 8 7
6 2 2 2 2 2 5 4 3 14 14 14 15 15 15 15 15 13 18 16 16 15 13 14 14 13 12 9 6 6 6 4 4 3 3 1 1 1 1 2 3 3 4 5 6 7 7 8 8
2 2 3 3 1 3 6 12 5 14 15 14 13 13 14 15 18 19 19 16 14 13 14 13 12 12 11 7 6 5 5 4 4 4 4 4 1 2 2 2 2 2 4 5 4 7 7 7 8
1 2 6 4 3 3 3 9 6 10 14 14 14 15 16 17 15 17 17 15 15 15 14 15 14 13 10 8 7 7 7 5 5 5 6 5 4 5 4 2 3 2 3 5 5 5 10 6 7
2 3 3 3 2 4 4 9 6 5 9 16 16 16 15 14 15 17 18 17 17 19 17 15 15 14 11 9 8 6 5 5 4 4 5 7 6 6 4 4 4 4 4 6 7 7 6 5 6
2 3 5 5 4 2 8 4 3 2 4 7 13 13 13 16 18 17 18 19 10 12 11 13 15 14 13 13 7 5 4 3 4 5 5 7 7 7 6 5 4 4 4 4 6 7 7 6 6
1 2 6 9 3 2 5 3 2 6 8 3 4 9 11 15 18 18 19 19 16 13 7 8 11 15 14 14 11 12 9 9 7 6 6 6 8 7 6 5 6 5 4 5 4 5 6 6 7
1 4 6 4 5 2 3 3 2 3 3 6 3 2 5 10 16 19 21 19 18 21 18 16 16 15 14 15 15 12 12 9 6 6 7 7 7 8 8 8 8 6 5 5 6 6 7 7 6
4 2 2 3 2 3 2 4 1 1 2 4 5 9 8 7 8 14 17 15 18 20 18 12 13 16 16 16 17 16 14 12 8 8 7 7 7 7 9 8 7 6 6 7 6 7 8 7 7
3 2 2 4 4 2 1 4 2 3 4 5 9 9 11 9 3 7 15 17 20 22 19 13 16 18 17 18 17 17 16 15 14 11 9 8 8 7 9 9 8 7 8 7 7 8 8 8 7
2 2 3 5 4 1 1 3 2 5 4 6 5 7 7 10 8 3 11 17 20 21 19 17 18 18 18 17 17 15 15 11 11 12 9 9 8 8 8 10 10 10 9 8 8 7 7 7 7
6 5 2 5 1 4 0 4 10 8 9 7 4 4 6 8 9 5 7 13 17 19 20 20 16 15 16 18 15 15 14 15 13 13 11 9 9 8 9 10 10 11 11 10 9 8 9 8 7
4 7 4 1 5 5 3 4 5 5 8 8 1 7 11 12 8 6 4 11 13 15 16 16 15 16 15 15 14 14 15 15 14 12 13 12 10 10 10 10 10 10 11 11 10 9 8 8 7
5 5 4 2 3 3 3 2 5 11 4 7 5 7 11 14 11 8 1 8 11 11 12 13 13 14 14 14 14 15 14 15 14 13 12 12 12 11 11 11 10 10 11 11 11 11 10 10 10
1 7 10 7 7 1 3 3 1 3 6 5 6 8 10 10 11 8 6 8 8 9 10 11 12 13 13 13 13 14 13 13 13 14 14 12 13 13 12 10 10 10 10 11 12 12 11 12 12
Wind_Direction
164 170 191 215 131 89 80 73 42 128 157 177 159 220 168 47 8 48 142 153 145 147 152 153 149 137 124 109 102 89 76 57 41 32 32 24 18 10 6 359 358 352 345 342 348 357 4 9 17
210 210 215 314 68 96 84 147 163 172 120 139 150 123 93 78 66 116 141 155 146 144 152 151 136 135 130 121 99 79 65 46 30 24 25 23 10 4 358 349 345 341 352 356 356 4 24 32 43
212 217 236 71 60 77 130 178 133 117 136 152 132 59 50 63 96 142 121 147 144 142 149 142 140 132 131 111 89 73 62 41 25 16 14 13 5 360 351 345 341 344 358 360 9 44 52 41 57
219 41 86 66 69 53 59 133 133 126 104 143 117 78 94 60 137 134 144 147 145 146 151 147 148 144 134 125 108 90 54 28 17 18 10 8 360 347 341 342 346 354 349 8 53 72 62 63 74
67 54 47 67 62 85 109 138 142 118 107 117 133 105 85 87 114 137 144 148 145 145 150 154 159 159 143 132 116 83 52 26 6 11 9 6 347 343 340 341 347 349 7 54 75 70 80 71 72
68 26 67 83 74 72 104 137 149 100 121 128 104 107 96 125 135 145 148 149 146 148 154 157 167 164 162 149 128 73 33 20 7 7 357 348 338 355 4 4 2 16 64 83 84 80 82 77 74
76 70 109 95 97 110 116 147 98 106 129 111 130 99 106 149 144 147 150 148 149 152 157 159 167 171 170 165 153 38 7 10 1 356 354 1 11 5 15 10 26 70 73 92 94 85 79 78 76
54 97 97 68 72 77 118 128 121 127 76 120 140 158 166 162 149 148 151 152 154 160 161 167 174 175 178 175 176 284 348 360 352 353 355 16 7 2 31 15 42 69 87 91 89 86 85 82 80
358 76 59 69 156 117 146 131 91 101 140 87 5 145 134 150 149 148 153 160 164 169 178 175 180 191 189 189 178 320 2 7 347 351 4 10 18 9 38 57 60 64 93 95 83 85 88 88 82
360 73 56 22 286 181 157 149 144 138 148 86 80 110 134 150 158 160 169 171 179 181 186 190 193 198 192 197 176 154 340 358 355 358 5 10 23 27 43 67 71 68 85 93 86 89 93 88 83
341 81 344 295 259 165 154 126 141 148 197 183 161 147 151 161 169 172 181 181 183 184 187 195 196 200 197 194 196 198 301 343 356 10 14 24 21 32 45 58 68 75 92 96 86 87 77 76 77
6 261 239 301 137 160 163 144 141 167 341 179 161 157 157 167 178 183 185 185 184 187 192 191 198 198 206 195 200 185 264 339 10 13 21 23 36 42 44 49 67 82 98 104 90 88 85 84 78
229 293 283 252 333 163 136 150 112 185 86 126 144 159 168 174 181 190 191 190 190 194 193 198 197 202 203 202 205 204 201 317 357 19 38 35 38 38 50 59 59 84 115 103 104 102 94 90 85
324 307 88 88 98 126 144 139 184 131 132 133 154 170 176 181 184 185 192 195 198 199 198 202 209 208 205 206 209 210 193 205 303 10 33 28 28 34 50 68 74 94 108 107 113 111 105 98 92
329 77 49 47 78 122 134 159 234 147 149 151 172 179 179 188 190 199 199 204 203 203 199 200 206 213 216 212 212 221 206 201 252 346 8 10 3 31 33 98 90 97 109 119 121 118 116 105 99
23 36 2 32 90 123 247 288 166 157 158 169 181 183 189 200 200 200 201 207 205 208 205 201 202 210 214 215 212 227 218 215 244 266 305 11 349 11 54 91 101 111 135 135 131 134 124 119 111
40 36 348 317 16 174 219 292 157 175 180 182 193 184 194 203 209 215 213 206 203 203 201 202 204 210 212 212 219 230 234 233 243 253 264 308 336 315 50 98 109 129 131 140 153 142 140 127 116
27 7 326 273 287 235 222 258 236 194 196 199 197 193 195 203 208 210 217 213 212 205 202 201 201 211 207 209 214 230 239 227 244 247 250 258 234 194 185 121 113 139 143 148 162 148 128 133 126
313 289 299 266 258 261 258 274 266 207 210 210 204 202 205 204 204 210 211 204 206 201 205 204 196 202 197 201 207 224 226 224 236 237 234 241 222 189 182 167 151 168 167 146 140 123 132 128 130
26 333 327 302 236 260 306 304 334 165 218 223 214 212 211 203 210 210 212 197 201 200 197 205 207 196 201 205 206 220 210 218 243 243 224 227 223 198 188 175 190 182 165 161 157 160 147 131 188
10 8 5 346 347 105 312 265 13 56 323 235 226 228 218 212 210 211 207 206 151 220 213 215 203 206 200 210 204 197 196 206 214 219 217 210 217 192 199 185 188 196 200 177 180 176 181 164 189
313 165 325 295 287 354 339 335 0 354 12 49 239 227 228 217 222 215 207 201 183 137 207 217 223 204 205 204 207 209 217 220 221 217 209 206 202 196 199 195 196 185 185 187 190 188 196 194 188
308 347 346 345 162 227 43 275 29 351 8 6 357 305 265 241 228 219 213 204 181 174 199 193 194 205 200 203 213 207 218 222 221 214 217 216 200 209 209 210 202 204 189 182 184 181 198 193 214
302 157 88 78 159 227 7 312 266 314 328 297 325 343 358 332 239 216 211 194 186 186 204 197 192 203 198 204 209 208 214 218 214 215 218 219 212 206 210 211 210 221 218 199 198 196 204 205 213
194 246 227 198 207 301 50 249 303 227 230 273 323 332 344 349 20 194 186 184 188 192 204 183 196 204 199 205 208 211 217 218 219 215 217 221 224 218 212 210 214 217 227 218 211 205 217 211 215
139 226 236 223 218 82 126 237 54 197 208 279 274 308 342 356 356 96 183 183 190 194 196 187 195 198 196 201 209 211 215 219 222 222 221 225 228 227 224 214 220 223 226 226 217 218 224 220 228
153 203 72 119 101 248 359 264 261 233 252 222 275 325 360 357 341 333 180 189 188 192 195 202 194 195 200 201 204 208 212 218 221 222 220 220 226 229 225 222 221 223 222 223 222 227 220 221 223
252 132 168 191 191 228 184 274 262 244 200 192 93 8 356 350 338 308 190 186 191 195 199 201 205 205 203 206 207 210 212 216 221 219 220 222 222 221 222 219 221 224 225 223 220 224 220 214 222
151 162 75 116 300 235 236 247 219 246 90 174 62 12 349 337 335 334 70 174 181 188 194 200 205 210 207 207 211 216 215 216 218 219 218 220 222 220 219 221 223 224 227 225 220 227 223 216 222
339 212 198 228 180 54 313 269 78 73 100 56 34 19 15 11 13 12 70 116 153 178 189 200 209 212 213 208 210 219 220 219 220 221 220 215 222 217 218 220 226 227 227 230 230 222 221 219 215